Weather History for Leesburg, FL

Change the Weather History Date:

Monday, September 16, 2013

  Actual Average Record
Temperature  
Mean Temperature 83 °F -  
Max Temperature 93 °F 90 °F 99 °F (1990)
Min Temperature 73 °F 70 °F 63 °F (1976)
Cooling Degree Days 18    
Growing Degree Days 33 (Base 50)    
Moisture  
Dew Point 73 °F    
Average Humidity 78    
Maximum Humidity 97    
Minimum Humidity 45    
Precipitation  
Precipitation 0.05 in - - ()
Sea Level Pressure  
Sea Level Pressure 30.06 in    
Wind  
Wind Speed 4 mph (East)    
Max Wind Speed 12 mph    
Max Gust Speed 16 mph    
Visibility 10 miles    
Events      
Averages and records for this station are not official NWS values.
T = Trace of Precipitation, MM = Missing Value Source: NWS Daily Summary

Daily Weather History Graph

Daily Weather History Graph

Search for Another Location

Airport:

Trip Planner

Search our weather history database for the weather conditions in past years. The results will help you decide how hot, cold, wet, or windy it might be!

Date:

Astronomy

Sep. 16, 2013 Rise Set
Actual Time 7:12 AM EDT 7:30 PM EDT
Civil Twilight 6:49 AM EDT 7:54 PM EDT
Nautical Twilight 6:21 AM EDT 8:21 PM EDT
Astronomical Twilight 5:53 AM EDT 8:49 PM EDT
Moon 5:29 PM EDT (9/16) 4:09 AM EDT (9/16)
Length of Visible Light 13h 05m
Length of Day
12h 17m
Waxing Gibbous, 90% of the Moon is Illuminated
Sep 16
Waxing Gibbous
Sep 19
Full
Sep 26
Last Quarter
Oct 4
New
Oct 11
First Quarter

Hourly Weather History & Observations

Time (EDT) Temp. Heat Index Dew Point Humidity Pressure Visibility Wind Dir Wind Speed Gust Speed Precip Events Conditions
12:53 AM 77.0 °F - 73.9 °F 90% 30.09 in 10.0 mi NE 4.6 mph - N/A   Clear
1:53 AM 78.1 °F - 75.0 °F 90% 30.08 in 10.0 mi Calm Calm - N/A   Clear
2:53 AM 75.9 °F - 75.0 °F 97% 30.07 in 10.0 mi Calm Calm - N/A   Partly Cloudy
3:53 AM 75.9 °F - 75.0 °F 97% 30.05 in 10.0 mi Calm Calm - N/A   Clear
4:53 AM 75.0 °F - 73.0 °F 94% 30.05 in 10.0 mi ENE 3.5 mph - N/A   Clear
5:53 AM 75.0 °F - 73.0 °F 94% 30.07 in 10.0 mi East 3.5 mph - N/A   Clear
6:53 AM 73.9 °F - 72.0 °F 93% 30.08 in 10.0 mi Calm Calm - N/A   Clear
7:53 AM 75.0 °F - 72.0 °F 90% 30.09 in 10.0 mi NE 4.6 mph - N/A   Clear
8:53 AM 79.0 °F - 73.9 °F 84% 30.11 in 10.0 mi East 4.6 mph - N/A   Clear
9:53 AM 82.9 °F 88.8 °F 73.0 °F 72% 30.11 in 10.0 mi NE 5.8 mph - N/A   Clear
10:53 AM 84.0 °F 90.2 °F 73.0 °F 69% 30.10 in 10.0 mi East 5.8 mph - N/A   Clear
11:53 AM 87.1 °F 92.8 °F 71.1 °F 59% 30.09 in 10.0 mi ENE 5.8 mph - N/A   Partly Cloudy
12:53 PM 89.1 °F 96.0 °F 72.0 °F 57% 30.07 in 10.0 mi SE 6.9 mph - N/A   Clear
1:53 PM 88.0 °F 93.8 °F 71.1 °F 57% 30.04 in 10.0 mi East 8.1 mph - N/A   Partly Cloudy
2:53 PM 93.0 °F 97.9 °F 69.1 °F 45% 30.04 in 10.0 mi ENE 8.1 mph - N/A   Clear
3:53 PM 84.0 °F 90.2 °F 73.0 °F 69% 30.02 in 10.0 mi ENE 6.9 mph 16.1 mph 0.05 in   Mostly Cloudy
4:53 PM 90.0 °F 96.9 °F 72.0 °F 55% 30.01 in 10.0 mi East 10.4 mph - 0.00 in   Clear
5:53 PM 88.0 °F 90.7 °F 66.9 °F 49% 30.00 in 10.0 mi ESE 10.4 mph - N/A   Partly Cloudy
6:34 PM 80.6 °F 85.4 °F 73.4 °F 79% 30.03 in 10.0 mi SSW 11.5 mph - N/A   Partly Cloudy
6:53 PM 81.0 °F 85.8 °F 73.0 °F 77% 30.03 in 10.0 mi South 8.1 mph 16.1 mph N/A   Clear
7:53 PM 80.1 °F 84.2 °F 73.0 °F 79% 30.03 in 10.0 mi SSE 6.9 mph - N/A   Clear
8:53 PM 79.0 °F - 73.9 °F 84% 30.05 in 10.0 mi SSE 4.6 mph - N/A   Clear
9:53 PM 78.1 °F - 73.9 °F 87% 30.06 in 10.0 mi NE 4.6 mph - N/A   Clear
10:53 PM 77.0 °F - 73.9 °F 90% 30.06 in 10.0 mi NE 3.5 mph - N/A   Clear
11:53 PM 77.0 °F - 73.9 °F 90% 30.05 in 10.0 mi Calm Calm - N/A   Clear